Theta_e
313 313 314 314 313 313 314 313 312 313 315 316 317 318 318 320 321 319 314 315 316 320 321 321 321 321 319 318 318 318 312 312 315 318 316 319 316 319 320 321 320 321 320 320 320
313 313 314 314 314 314 315 315 313 313 315 315 315 316 317 318 320 319 314 314 318 320 321 322 322 321 320 320 319 314 311 313 318 318 316 318 318 319 318 318 319 319 319 320 320
313 313 314 314 314 314 314 315 315 315 315 315 316 316 317 318 322 319 316 313 320 320 321 322 322 322 322 321 320 318 314 316 319 320 319 317 317 319 318 316 319 319 319 319 320
313 313 313 314 314 314 314 314 314 314 314 314 315 315 316 320 322 321 318 316 320 320 321 320 321 322 320 319 321 319 319 320 321 321 319 317 319 319 320 320 321 320 319 318 318
313 313 313 314 315 315 314 314 313 314 315 314 314 314 314 324 324 319 319 319 320 321 321 319 320 321 318 319 320 319 319 322 322 322 320 320 319 319 320 321 321 321 321 320 319
312 312 313 313 313 313 315 314 313 313 314 313 313 315 313 322 317 318 319 319 320 320 321 319 319 319 320 319 318 321 320 321 322 321 321 319 320 321 321 320 320 320 320 320 319
313 313 313 313 312 312 313 314 314 313 312 311 312 314 315 321 316 319 319 318 320 320 321 320 320 319 319 317 320 320 317 319 320 320 319 321 320 320 322 322 322 322 321 321 321
311 313 313 314 314 313 312 313 316 314 313 314 313 315 318 322 317 316 316 317 319 318 318 318 319 320 319 318 319 318 319 319 321 322 322 321 319 320 323 323 323 323 322 322 322
313 312 312 314 314 313 313 314 319 317 315 315 316 321 323 320 317 316 317 318 317 317 318 319 319 319 321 320 319 321 320 319 320 319 320 321 319 320 323 324 323 324 324 323 323
316 315 314 312 313 314 317 320 321 321 317 321 323 320 321 319 317 316 318 317 317 318 320 321 319 317 318 320 322 319 318 318 319 320 320 320 321 322 324 324 324 325 326 326 325
311 316 316 313 313 317 318 320 318 322 320 320 322 322 320 318 317 317 318 317 317 318 318 321 319 319 319 322 320 319 319 320 320 321 321 321 321 322 323 324 326 325 326 325 325
311 310 313 316 313 318 319 320 318 317 318 318 319 322 319 318 317 318 318 317 317 317 319 319 320 320 323 322 321 320 320 320 321 322 321 321 322 322 324 327 326 324 324 324 324
313 312 311 313 315 319 319 320 318 318 319 319 322 320 317 317 317 318 317 317 317 318 320 319 320 321 323 321 321 321 321 320 321 321 321 322 322 322 327 324 324 324 324 323 323
309 310 311 311 317 316 319 317 318 320 318 324 321 318 318 318 319 318 317 318 318 320 320 319 320 321 321 321 321 321 320 321 322 322 323 323 324 322 327 325 324 323 323 321 321
306 307 312 307 317 320 319 317 321 320 333 321 319 318 319 318 318 319 318 318 318 319 320 320 320 321 321 321 320 319 320 320 322 323 321 323 326 324 326 326 324 322 321 321 321
306 306 309 307 317 319 318 317 322 327 334 323 320 319 318 319 319 319 319 319 319 320 319 319 322 321 321 321 320 320 320 323 323 321 323 324 324 323 328 325 323 323 322 321 320
307 307 308 307 312 319 317 319 324 330 324 322 320 318 318 320 320 320 320 318 318 319 318 319 319 319 319 320 320 319 321 322 323 319 320 320 322 325 328 324 323 322 321 320 320
307 310 318 314 318 318 318 320 327 327 322 321 319 318 320 320 320 320 320 319 317 317 316 317 320 317 317 318 319 319 324 324 324 320 325 323 327 329 325 324 323 321 321 320 319
307 318 319 320 319 316 319 321 323 323 320 320 319 320 319 320 319 319 320 319 318 316 316 316 318 317 318 319 319 321 325 324 320 325 320 323 325 325 324 324 323 322 321 320 319
310 321 320 319 318 317 320 321 322 320 319 319 319 319 319 320 320 319 321 320 320 318 316 316 317 318 318 319 322 324 324 325 325 322 323 323 322 325 324 323 323 320 320 319 319
317 322 320 319 317 318 323 324 321 319 318 319 318 318 320 320 320 320 322 320 319 318 316 315 317 317 316 319 323 324 326 324 322 321 321 325 323 324 322 321 321 319 320 319 318
319 323 318 315 320 322 322 320 317 318 317 319 318 319 320 319 321 321 322 321 318 317 316 317 314 317 318 321 322 321 320 321 318 323 324 327 325 322 321 319 321 320 320 319 318
316 321 319 319 322 320 322 320 318 318 318 318 318 319 318 319 321 321 322 320 320 319 317 317 314 319 320 321 319 318 319 319 320 324 326 325 320 321 321 320 322 321 319 318 317
317 322 320 318 320 320 321 322 321 318 318 317 318 318 320 319 319 321 322 322 319 317 315 319 319 321 319 322 319 320 320 321 324 325 326 322 323 322 321 321 321 320 318 317 317
320 319 317 316 317 319 319 321 320 321 318 318 319 320 319 320 319 321 321 320 319 319 319 319 321 321 322 321 321 321 323 325 325 325 323 324 324 321 320 320 321 319 318 317 317
317 315 315 316 317 320 319 320 322 320 317 318 318 319 318 319 319 321 320 319 318 319 319 318 319 320 322 321 322 323 324 324 325 324 325 324 323 319 320 319 320 318 317 316 316
314 313 313 316 317 318 319 320 320 317 317 318 318 318 318 319 318 318 318 318 317 317 318 319 320 322 321 322 322 325 325 325 322 323 323 322 320 319 318 319 319 318 317 316 315
Wind_Speed
18 18 17 15 13 13 14 13 9 9 9 8 5 5 4 6 8 5 10 9 5 8 11 9 8 2 5 8 9 8 3 4 7 4 7 19 10 19 13 3 5 11 12 19 23
17 17 17 15 13 11 10 12 9 6 5 5 5 6 8 11 8 3 13 13 8 8 9 12 10 5 9 14 7 6 4 7 4 4 5 14 14 19 12 16 15 17 21 19 20
17 17 17 15 12 10 8 7 7 7 6 7 8 9 11 14 8 3 13 12 8 11 14 17 16 17 19 12 10 6 5 7 14 8 11 11 12 16 13 7 17 18 18 18 19
18 17 17 16 14 12 9 6 4 6 7 9 11 14 16 12 4 3 13 11 9 13 16 16 16 16 6 6 8 4 10 13 16 20 9 7 19 8 13 16 20 21 22 21 21
19 18 17 17 16 14 11 9 7 5 6 9 13 16 17 10 6 10 12 12 11 13 15 13 17 12 7 10 17 7 7 18 24 22 19 22 12 14 22 23 22 21 21 23 18
19 18 17 17 17 16 14 10 9 7 7 10 12 19 14 8 10 10 13 9 12 11 12 12 16 14 9 8 7 16 22 21 23 25 27 15 17 19 17 25 24 21 21 22 21
19 17 17 18 18 17 15 13 9 7 6 8 15 18 13 10 10 9 12 13 11 18 8 9 11 10 17 8 13 17 10 15 20 27 14 23 11 9 27 24 22 24 24 18 19
22 20 17 17 18 18 16 15 11 9 10 13 14 14 10 2 7 12 14 11 10 15 14 13 8 9 9 13 15 8 6 7 17 13 14 10 8 11 24 19 21 20 17 19 22
24 22 20 17 17 18 15 13 10 9 10 12 10 5 12 4 9 16 8 10 17 16 13 12 10 9 13 5 7 3 5 8 9 10 8 5 9 8 22 18 15 20 24 27 29
25 24 22 18 17 15 11 14 11 10 8 12 9 7 6 6 16 13 10 14 20 19 13 15 10 5 5 3 4 7 9 9 7 12 13 9 8 13 26 23 23 27 20 9 22
25 25 23 19 16 12 9 13 11 3 4 10 14 16 15 12 15 7 8 18 18 17 7 19 4 7 10 3 5 5 6 9 14 13 6 7 11 18 23 20 15 23 30 35 33
26 26 23 20 14 10 10 9 11 12 12 21 19 11 14 9 13 13 11 11 15 9 12 6 11 8 5 6 7 8 9 10 7 13 11 13 16 22 20 10 22 26 29 31 36
28 27 25 19 14 9 12 10 15 15 4 17 10 5 5 7 9 7 9 10 9 9 11 8 14 17 4 4 7 7 7 10 11 11 8 14 11 10 6 24 25 29 30 33 32
29 26 25 21 8 11 6 11 11 10 2 6 6 5 6 7 1 5 6 3 4 9 8 7 9 15 8 7 6 5 9 14 13 10 8 4 14 9 6 11 12 24 28 29 37
31 24 22 16 10 3 11 13 14 1 3 1 4 3 10 10 4 4 14 9 6 10 7 10 16 11 9 4 7 7 15 13 7 12 5 10 4 6 15 13 13 15 23 26 29
31 23 22 12 7 5 14 14 9 1 4 3 1 8 9 11 7 7 14 16 13 4 11 16 28 5 3 4 8 11 11 8 7 5 3 5 5 6 4 8 12 18 26 32 32
29 24 16 7 4 6 11 9 2 2 2 5 7 10 10 7 4 6 8 7 5 6 9 12 15 9 16 10 7 8 5 4 5 5 3 11 5 2 7 9 12 14 24 28 29
26 16 7 3 7 10 6 3 3 7 8 7 9 13 4 10 6 10 10 3 10 8 5 6 7 15 17 12 7 7 6 4 3 2 6 14 4 2 3 14 15 18 27 32 32
21 5 5 8 6 6 4 1 3 7 8 8 10 6 8 14 9 9 7 5 5 7 4 5 6 20 20 10 4 5 5 5 4 4 2 4 2 3 11 13 19 23 26 35 39
16 8 12 5 6 2 1 4 4 8 7 7 4 9 8 8 8 9 7 6 3 7 6 5 12 9 15 14 5 4 2 4 3 3 4 5 6 2 13 11 11 15 24 32 40
8 7 1 8 4 5 2 3 6 13 9 5 6 4 8 6 8 9 4 5 4 5 5 4 3 9 11 9 9 6 2 5 4 3 3 4 5 2 6 10 8 12 26 29 35
5 3 3 3 1 4 1 2 2 8 7 3 1 5 6 8 6 7 7 6 6 0 3 3 3 4 16 10 14 3 4 2 3 5 4 3 5 6 9 10 9 19 26 31 36
15 6 3 6 2 4 6 4 4 3 5 4 5 6 7 5 4 7 7 7 18 8 4 3 3 5 9 7 14 12 16 6 2 3 3 2 6 7 11 13 15 18 28 33 35
7 4 3 3 9 6 5 5 6 8 1 3 5 8 5 7 7 7 10 11 18 4 6 3 2 4 4 10 9 14 16 16 2 3 3 6 7 7 14 14 11 19 26 32 31
3 4 7 4 6 7 7 7 7 3 5 8 3 5 5 3 8 7 11 10 13 3 4 3 3 6 13 16 17 19 10 8 5 5 4 6 7 9 13 10 9 19 22 31 36
7 7 10 15 16 7 5 6 5 4 8 7 7 8 6 5 7 7 7 3 6 5 6 4 5 7 10 14 16 8 8 2 5 3 4 6 5 7 16 20 13 17 20 25 30
9 7 7 11 7 6 5 3 5 7 6 12 10 6 8 7 16 21 24 20 14 10 6 4 3 2 5 13 15 5 3 4 4 6 3 4 6 5 7 11 8 15 17 25 26
Wind_Direction
42 39 38 40 43 42 42 42 54 58 71 66 63 55 28 14 16 11 35 30 29 20 2 345 352 320 284 266 249 252 25 261 269 316 291 356 14 358 6 38 302 304 303 303 308
40 36 34 36 38 37 41 44 51 49 42 18 0 335 325 322 336 6 21 27 50 39 21 353 350 323 269 249 231 158 174 237 278 3 356 344 356 337 354 346 336 326 309 306 303
36 34 32 31 28 28 24 23 34 40 29 7 357 352 343 337 340 175 9 14 46 6 353 348 328 299 267 261 222 216 219 275 304 338 359 334 333 338 348 336 319 315 311 303 303
32 29 27 26 20 13 4 355 338 353 348 344 340 339 338 336 15 305 354 358 38 14 346 357 344 359 339 347 323 179 266 286 295 297 336 298 301 304 296 285 292 285 289 292 290
25 23 21 18 15 8 358 345 327 327 340 338 338 331 341 333 292 333 344 4 5 333 340 345 331 5 354 328 325 346 318 315 320 316 313 310 295 283 279 283 282 278 272 272 274
17 12 10 9 6 5 356 339 330 304 311 320 338 333 326 292 351 330 334 317 338 342 336 331 343 345 304 309 345 313 309 299 302 291 283 262 262 254 265 277 274 268 262 258 257
8 3 2 359 353 349 350 344 316 313 304 312 325 340 312 267 352 343 332 324 315 318 292 306 315 329 318 319 301 316 311 299 276 264 252 250 264 233 262 264 265 255 257 249 247
6 359 344 344 347 345 332 336 322 282 290 308 316 310 287 283 326 339 316 316 322 310 308 305 290 300 284 270 276 273 273 285 283 322 245 234 255 270 297 254 253 245 240 243 245
359 356 351 345 343 344 337 325 323 311 285 301 320 323 279 217 345 337 357 319 321 312 302 290 247 251 271 270 307 255 248 293 290 317 318 323 290 276 299 315 297 277 266 255 255
354 352 349 340 340 342 346 335 310 300 284 295 272 300 284 342 328 324 338 324 316 297 290 266 226 217 269 201 251 326 327 318 307 302 319 326 315 322 311 311 298 297 298 22 54
348 347 348 344 341 346 356 353 358 0 283 253 263 256 292 311 318 339 337 334 341 336 284 287 129 227 248 37 323 305 308 291 285 288 10 329 320 296 290 287 49 46 40 26 18
348 342 340 343 336 332 346 340 2 315 304 293 269 279 272 283 295 348 332 355 333 305 295 309 246 235 255 315 307 299 288 286 302 341 339 318 291 281 292 96 55 42 33 24 11
342 339 336 335 336 334 330 315 331 324 313 307 188 241 272 281 286 330 7 347 314 302 342 322 293 299 273 310 319 311 311 328 317 314 295 284 290 317 35 58 48 36 22 15 7
337 333 332 332 347 322 351 340 314 326 334 202 177 175 291 238 313 335 347 343 299 309 324 308 309 334 340 1 21 333 305 291 290 304 287 301 291 309 55 41 48 35 23 3 343
337 332 321 321 318 298 6 326 344 348 357 104 102 256 288 268 261 167 328 240 254 279 355 292 277 287 294 30 357 266 281 284 296 301 336 12 39 326 42 27 24 22 5 346 337
339 335 315 308 266 348 337 317 324 1 244 133 213 341 343 322 359 348 308 295 243 359 337 321 346 210 62 336 272 279 345 335 321 290 54 166 124 275 32 24 13 1 354 344 334
340 334 323 291 243 348 325 323 356 220 130 45 358 330 300 287 25 328 319 49 63 13 352 328 29 1 39 350 330 343 358 1 353 4 253 327 354 195 13 33 20 1 344 328 333
344 343 28 43 58 334 325 13 259 339 27 13 334 303 334 44 17 354 337 105 64 43 334 355 321 26 331 304 275 326 109 148 258 298 290 304 178 59 48 43 9 356 341 335 336
349 16 60 87 42 330 329 302 303 32 15 343 335 1 11 355 16 356 345 67 62 54 55 309 295 319 297 348 6 314 10 129 104 344 347 258 173 220 16 13 7 355 344 337 337
350 11 101 75 312 10 356 251 76 76 16 353 340 29 344 341 19 341 336 47 44 41 41 277 303 296 343 311 57 110 11 333 62 320 297 296 322 346 1 4 352 350 343 340 336
353 346 141 336 264 286 237 319 63 92 67 1 3 315 324 15 339 329 325 101 60 11 350 2 31 298 311 325 315 36 12 248 148 113 229 306 280 91 359 8 352 337 335 340 336
10 304 305 85 227 216 174 71 353 33 24 8 276 320 14 350 304 308 19 326 70 126 302 109 240 300 295 276 65 18 289 53 100 280 202 222 273 284 28 9 8 337 340 342 344
341 283 275 30 19 338 6 3 127 33 16 3 334 355 335 290 349 305 322 21 18 25 61 1 327 325 339 350 346 343 319 284 282 51 211 250 267 329 13 354 359 344 347 344 343
335 308 5 319 65 22 4 358 355 162 82 111 256 286 286 10 325 309 308 4 3 47 146 129 242 231 227 266 290 304 297 297 131 141 232 230 278 4 356 340 349 349 349 339 343
318 358 5 319 353 341 323 317 294 352 54 347 287 251 54 352 305 289 342 348 343 263 186 150 256 290 292 302 303 306 340 38 60 310 241 328 347 2 337 327 13 356 348 348 344
337 359 337 304 307 261 265 255 284 13 28 316 296 340 0 300 274 313 330 343 262 326 4 312 285 314 301 292 291 307 328 350 254 304 20 346 330 341 319 350 12 359 345 346 342
8 352 349 291 299 296 250 23 7 355 301 323 13 354 309 319 333 307 289 270 248 261 263 248 230 275 280 305 324 291 200 272 54 82 18 349 282 302 343 352 16 349 348 347 344